DW6133 Weather Reports


time (UTC)temp
C
wind
direction
speed
KPH
gust
KPH
rain 1hr
cm
rain 24hr
cm
rain mn
cm
humidity
%
barometer
mb
20260505140534 12 267 0.0 0.0 0.00 0.00 0.00 90 1013.3
20260505125020 12 220 0.0 0.0 0.00 0.00 0.00 90 1012.6
20260505124521 12 281 0.0 0.0 0.00 0.00 0.00 90 1012.6
20260505124019 12 346 0.0 0.0 0.00 0.00 0.00 90 1012.5
20260505123518 12 96 0.0 0.0 0.00 0.00 0.00 90 1012.5
20260505123024 12 53 0.0 0.0 0.00 0.00 0.00 90 1012.4
20260505122518 12 160 0.0 0.0 0.00 0.00 0.00 90 1012.4
20260505122018 12 94 0.0 0.0 0.00 0.00 0.00 90 1012.4
20260505121521 12 277 0.0 0.0 0.00 0.00 0.00 90 1012.4
20260505121017 12 225 0.0 0.0 0.00 0.00 0.00 90 1012.3
20260505120517 12 256 0.0 0.0 0.00 0.00 0.00 90 1012.3
20260505120016 12 122 0.0 1.6 0.00 0.00 0.00 91 1012.3
20260505115515 12 49 0.0 1.6 0.00 0.00 0.00 91 1012.3
20260505115015 12 264 0.0 0.0 0.00 0.00 0.00 91 1012.2
20260505114515 12 298 0.0 0.0 0.00 0.00 0.00 91 1012.2
20260505114015 12 36 0.0 0.0 0.00 0.00 0.00 91 1012.2
20260505113514 12 129 0.0 0.0 0.00 0.00 0.00 91 1012.2
20260505113015 12 61 0.0 0.0 0.00 0.00 0.00 91 1012.2
20260505112513 12 101 0.0 0.0 0.00 0.00 0.00 91 1012.2
20260505112013 12 174 0.0 0.0 0.00 0.00 0.00 91 1012.2
20260505111517 12 132 0.0 0.0 0.00 0.00 0.00 91 1012.1
20260505111012 12 301 0.0 0.0 0.00 0.00 0.00 91 1012.1
20260505110511 12 113 0.0 1.6 0.00 0.00 0.00 91 1012.1
20260505102006 12 250 0.0 0.0 0.00 0.00 0.00 92 1011.8
20260505101508 12 114 0.0 0.0 0.00 0.00 0.00 92 1011.7
20260505101006 12 61 0.0 0.0 0.00 0.00 0.00 92 1011.7
20260505100505 12 239 0.0 1.6 0.00 0.00 0.00 92 1011.6
20260505100005 12 86 0.0 1.6 0.00 0.00 0.00 91 1011.6
20260505095504 12 56 0.0 1.6 0.00 0.00 0.00 91 1011.5
20260505095003 12 245 0.0 1.6 0.00 0.00 0.00 91 1011.5
20260505094503 12 98 0.0 0.0 0.00 0.00 0.00 91 1011.5
20260505094004 12 326 0.0 0.0 0.00 0.00 0.00 91 1011.5
20260505093504 12 72 0.0 0.0 0.00 0.00 0.00 91 1011.4
20260505093001 12 355 0.0 0.0 0.00 0.00 0.00 91 1011.3
20260505092604 12 252 0.0 0.0 0.00 0.00 0.00 91 1011.3
20260505092059 12 307 0.0 0.0 0.00 0.00 0.00 91 1011.2
20260505091559 12 290 0.0 0.0 0.00 0.00 0.00 90 1011.2
20260505091058 12 107 0.0 0.0 0.00 0.00 0.00 90 1011.1
20260505090558 12 270 0.0 0.0 0.00 0.00 0.00 90 1011.2
20260505090109 12 291 0.0 0.0 0.00 0.00 0.00 90 1011.1
20260505085600 12 272 0.0 0.0 0.00 0.00 0.00 90 1011.2
20260505085057 12 116 0.0 0.0 0.00 0.00 0.00 89 1011.1
20260505084558 12 116 0.0 0.0 0.00 0.00 0.00 89 1011.1
20260505084056 12 288 0.0 0.0 0.00 0.00 0.00 90 1011.0
20260505083554 12 108 0.0 11.3 0.00 0.00 0.00 90 1011.0
20260505083107 12 285 0.0 11.3 0.00 0.00 0.00 90 1011.0
20260505082554 12 265 0.0 0.0 0.00 0.00 0.00 89 1010.9
20260505082053 12 246 0.0 0.0 0.00 0.00 0.00 89 1010.9
20260505081553 12 319 0.0 0.0 0.00 0.00 0.00 89 1010.9
20260505081052 12 323 0.0 0.0 0.00 0.00 0.00 88 1010.8
20260505080552 12 171 0.0 1.6 0.00 0.00 0.00 88 1010.9
20260505080055 12 101 0.0 1.6 0.00 0.00 0.00 88 1010.9
20260505075550 12 91 0.0 0.0 0.00 0.00 0.00 88 1010.8
20260505075050 12 288 0.0 0.0 0.00 0.00 0.00 88 1010.8
20260505074549 12 276 0.0 0.0 0.00 0.00 0.00 87 1010.8
20260505074053 12 253 0.0 0.0 0.00 0.00 0.00 87 1010.7
20260505073551 12 309 0.0 0.0 0.00 0.00 0.00 86 1010.7
20260505073055 13 317 0.0 1.6 0.00 0.00 0.00 86 1010.7
20260505072546 13 108 0.0 1.6 0.00 0.00 0.00 86 1010.6
20260505072045 13 177 0.0 0.0 0.00 0.00 0.00 86 1010.5
20260505071544 13 76 0.0 0.0 0.00 0.00 0.00 86 1010.4
20260505071043 13 114 0.0 1.6 0.00 0.00 0.00 85 1010.4
20260505070545 13 319 0.0 1.6 0.00 0.00 0.00 85 1010.4
20260505070050 13 270 0.0 0.0 0.00 0.00 0.00 85 1010.3
20260505065541 13 316 0.0 0.0 0.00 0.00 0.00 84 1010.3
20260505065040 13 250 0.0 0.0 0.00 0.00 0.00 84 1010.2
20260505064540 13 87 0.0 0.0 0.00 0.00 0.00 83 1010.2
20260505064039 13 290 0.0 0.0 0.00 0.00 0.00 83 1010.1
20260505063539 14 133 0.0 0.0 0.00 0.00 0.00 83 1010.1
20260505063041 14 117 0.0 0.0 0.00 0.00 0.00 82 1010.1
20260505062537 14 112 0.0 0.0 0.00 0.00 0.00 82 1010.0
20260505062035 14 354 0.0 0.0 0.00 0.00 0.00 81 1009.9
20260505061535 15 270 0.0 0.0 0.00 0.00 0.00 80 1009.9
20260505061035 15 295 0.0 0.0 0.00 0.00 0.00 80 1009.8
20260505060534 15 295 0.0 0.0 0.00 0.00 0.00 80 1009.7
20260505060036 15 136 0.0 0.0 0.00 0.00 0.00 79 1009.7
20260505055534 15 263 0.0 0.0 0.00 0.00 0.00 79 1009.6
20260505055033 15 281 0.0 0.0 0.00 0.00 0.00 79 1009.6
20260505054534 15 293 0.0 1.6 0.00 0.00 0.00 78 1009.6
20260505054032 16 281 0.0 1.6 0.00 0.00 0.00 78 1009.5
20260505053532 16 90 0.0 1.6 0.00 0.00 0.00 77 1009.5
20260505053031 16 111 0.0 0.0 0.00 0.00 0.00 77 1009.4
20260505052535 16 241 0.0 0.0 0.00 0.00 0.00 76 1009.4
20260505052031 16 252 0.0 0.0 0.00 0.00 0.00 76 1009.3
20260505051535 16 67 0.0 0.0 0.00 0.00 0.00 75 1009.3
20260505051031 16 107 0.0 0.0 0.00 0.00 0.00 75 1009.2
20260505050533 17 304 0.0 0.0 0.00 0.00 0.00 74 1009.1
20260505041546 18 100 0.0 0.0 0.00 0.00 0.00 67 1008.5
20260505041029 19 111 0.0 0.0 0.00 0.00 0.00 67 1008.4
20260505040528 19 253 0.0 0.0 0.00 0.00 0.00 66 1008.4
20260505040028 19 68 0.0 0.0 0.00 0.00 0.00 65 1008.2
20260505035527 20 290 0.0 0.0 0.00 0.00 0.00 65 1008.2
20260505035027 20 266 0.0 0.0 0.00 0.00 0.00 64 1008.1
20260505034527 20 274 0.0 0.0 0.00 0.00 0.00 63 1008.0
20260505034030 20 277 0.0 0.0 0.00 0.00 0.00 62 1007.9
20260505033527 20 240 0.0 0.0 0.00 0.00 0.00 61 1007.8
20260505033027 21 284 0.0 0.0 0.00 0.00 0.00 61 1007.7
20260505032530 21 262 0.0 0.0 0.00 0.00 0.00 60 1007.6
20260505032026 21 141 0.0 0.0 0.00 0.00 0.00 59 1007.5
20260505031527 21 138 0.0 0.0 0.00 0.00 0.00 58 1007.5
20260505031026 22 86 0.0 0.0 0.00 0.00 0.00 58 1007.4
20260505030526 22 312 0.0 0.0 0.00 0.00 0.00 58 1007.4
20260505030033 22 287 0.0 0.0 0.00 0.00 0.00 57 1007.3
20260505025528 22 319 0.0 0.0 0.00 0.00 0.00 56 1007.3
20260505025025 23 174 0.0 0.0 0.00 0.00 0.00 56 1007.2
20260505024526 23 86 0.0 0.0 0.00 0.00 0.00 54 1007.2
20260505024025 23 188 0.0 0.0 0.00 0.00 0.00 53 1007.2
20260505023524 24 264 0.0 0.0 0.00 0.00 0.00 52 1007.1
20260505023032 25 256 0.0 0.0 0.00 0.00 0.00 51 1007.1
20260505022527 25 228 0.0 0.0 0.00 0.00 0.00 50 1007.1
20260505022022 25 138 0.0 0.0 0.00 0.00 0.00 50 1007.1
20260505021527 25 288 0.0 1.6 0.00 0.00 0.00 48 1007.2
20260505021023 26 101 0.0 1.6 0.00 0.00 0.00 46 1007.2
20260505020523 27 98 0.0 0.0 0.00 0.00 0.00 45 1007.1
20260505020025 27 134 0.0 0.0 0.00 0.00 0.00 43 1007.1
20260505015523 28 300 0.0 0.0 0.00 0.00 0.00 42 1007.1
20260505015022 28 76 0.0 0.0 0.00 0.00 0.00 41 1007.1
20260505014522 28 30 0.0 0.0 0.00 0.00 0.00 41 1007.1
20260505014021 28 124 0.0 0.0 0.00 0.00 0.00 39 1007.1
20260505013524 28 103 0.0 0.0 0.00 0.00 0.00 38 1007.1
20260505013023 29 254 0.0 0.0 0.00 0.00 0.00 37 1007.2
20260505012521 29 41 0.0 0.0 0.00 0.00 0.00 37 1007.2
20260505012023 29 283 0.0 0.0 0.00 0.00 0.00 37 1007.2
20260505011528 29 95 0.0 0.0 0.00 0.00 0.00 36 1007.2
20260505011021 29 270 0.0 0.0 0.00 0.00 0.00 35 1007.2
20260505010519 29 103 0.0 0.0 0.00 0.00 0.00 35 1007.2
20260505010019 29 114 0.0 0.0 0.00 0.00 0.00 36 1007.2
20260505005519 29 102 0.0 1.6 0.00 0.00 0.00 36 1007.3
20260505005019 29 334 0.0 1.6 0.00 0.00 0.00 34 1007.2
20260505004531 30 101 0.0 1.6 0.00 0.00 0.00 34 1007.3
20260505004017 30 295 0.0 0.0 0.00 0.00 0.00 35 1007.3
20260505003517 30 117 0.0 0.0 0.00 0.00 0.00 35 1007.3
20260505003018 29 255 0.0 0.0 0.00 0.00 0.00 36 1007.3
20260505002516 29 324 0.0 0.0 0.00 0.00 0.00 35 1007.3
20260505002016 29 225 0.0 0.0 0.00 0.00 0.00 34 1007.3
20260505001516 29 255 0.0 0.0 0.00 0.00 0.00 33 1007.3
20260505001015 29 115 0.0 0.0 0.00 0.00 0.00 35 1007.4
20260505000516 29 219 0.0 0.0 0.00 0.00 0.00 33 1007.4
20260505000027 29 127 0.0 0.0 0.00 0.00 0.00 33 1007.4
20260504235515 29 259 0.0 0.0 0.00 0.00 0.00 34 1007.5
20260504235016 29 246 0.0 0.0 0.00 0.00 0.00 32 1007.5
20260504234515 29 222 0.0 0.0 0.00 0.00 0.00 31 1007.5
20260504234015 29 267 0.0 0.0 0.00 0.00 0.00 33 1007.6
20260504233515 29 239 0.0 0.0 0.00 0.00 0.00 31 1007.6
20260504233014 29 255 0.0 0.0 0.00 0.00 0.00 32 1007.6
20260504232514 29 258 0.0 0.0 0.00 0.00 0.00 34 1007.6
20260504232013 28 124 0.0 0.0 0.00 0.00 0.00 34 1007.6
20260504231513 28 255 0.0 0.0 0.00 0.00 0.00 34 1007.7
20260504231013 28 262 0.0 0.0 0.00 0.00 0.00 36 1007.6
20260504230513 28 276 0.0 1.6 0.00 0.00 0.00 35 1007.6
20260504230017 28 248 0.0 0.0 0.00 0.00 0.00 34 1007.6
20260504225513 28 301 0.0 0.0 0.00 0.00 0.00 33 1007.7
20260504225012 28 81 0.0 3.2 0.00 0.00 0.00 34 1007.8
20260504224512 28 141 0.0 3.2 0.00 0.00 0.00 35 1007.9
20260504224012 28 97 0.0 1.6 0.00 0.00 0.00 34 1007.9
20260504223512 29 267 0.0 0.0 0.00 0.00 0.00 36 1008.0
20260504223011 29 138 0.0 1.6 0.00 0.00 0.00 37 1008.0
20260504222515 29 120 0.0 1.6 0.00 0.00 0.00 35 1008.1
20260504222016 29 274 0.0 1.6 0.00 0.00 0.00 35 1008.2
20260504221516 29 264 0.0 0.0 0.00 0.00 0.00 37 1008.3
20260504221011 29 43 0.0 0.0 0.00 0.00 0.00 35 1008.3
20260504220510 29 53 0.0 1.6 0.00 0.00 0.00 38 1008.4
20260504220010 29 267 0.0 0.0 0.00 0.00 0.00 36 1008.4
20260504215508 29 253 0.0 0.0 0.00 0.00 0.00 39 1008.4
20260504215013 28 278 0.0 0.0 0.00 0.00 0.00 39 1008.4
20260504214511 28 29 0.0 0.0 0.00 0.00 0.00 39 1008.5
20260504214008 28 277 0.0 0.0 0.00 0.00 0.00 38 1008.5
20260504213506 28 253 0.0 0.0 0.00 0.00 0.00 38 1008.5
20260504213015 28 240 0.0 0.0 0.00 0.00 0.00 39 1008.4
20260504212504 28 217 0.0 0.0 0.00 0.00 0.00 40 1008.5
20260504212004 28 22 0.0 0.0 0.00 0.00 0.00 38 1008.6
20260504211510 28 117 0.0 0.0 0.00 0.00 0.00 38 1008.5
20260504211003 28 274 0.0 1.6 0.00 0.00 0.00 40 1008.5
20260504210502 28 259 0.0 1.6 0.00 0.00 0.00 39 1008.5
20260504210003 28 235 0.0 0.0 0.00 0.00 0.00 38 1008.7
20260504205502 28 253 0.0 0.0 0.00 0.00 0.00 38 1008.7
20260504205001 28 125 0.0 0.0 0.00 0.00 0.00 40 1008.7
20260504204501 28 176 0.0 0.0 0.00 0.00 0.00 39 1008.7
20260504204100 28 257 0.0 0.0 0.00 0.00 0.00 39 1008.7
20260504203603 28 99 0.0 0.0 0.00 0.00 0.00 38 1008.7
20260504203121 28 120 0.0 4.8 0.00 0.00 0.00 40 1008.6
20260504202559 28 285 0.0 4.8 0.00 0.00 0.00 39 1008.6
20260504202059 27 96 0.0 1.6 0.00 0.00 0.00 41 1008.6
20260504201558 27 262 0.0 1.6 0.00 0.00 0.00 39 1008.8
20260504201101 27 96 0.0 1.6 0.00 0.00 0.00 39 1008.8
20260504200558 27 252 0.0 1.6 0.00 0.00 0.00 39 1008.7
20260504200058 27 291 0.0 1.6 0.00 0.00 0.00 40 1008.6
20260504195601 27 103 0.0 0.0 0.00 0.00 0.00 41 1008.7
20260504195059 27 106 0.0 0.0 0.00 0.00 0.00 42 1008.7
20260504194606 27 160 0.0 1.6 0.00 0.00 0.00 42 1008.7
20260504194057 27 288 0.0 0.0 0.00 0.00 0.00 42 1008.8
20260504193557 27 109 0.0 0.0 0.00 0.00 0.00 41 1008.9
20260504193109 28 22 0.0 3.2 0.00 0.00 0.00 41 1008.8
20260504192556 28 315 0.0 0.0 0.00 0.00 0.00 41 1008.8
20260504192055 28 243 0.0 0.0 0.00 0.00 0.00 42 1008.9
20260504191555 27 98 0.0 0.0 0.00 0.00 0.00 44 1008.9
20260504191053 27 307 0.0 0.0 0.00 0.00 0.00 45 1009.0
20260504190557 27 316 0.0 0.0 0.00 0.00 0.00 41 1009.0
20260504190113 27 352 0.0 0.0 0.00 0.00 0.00 40 1009.1
20260504185553 27 278 0.0 0.0 0.00 0.00 0.00 41 1009.1
20260504185050 27 111 0.0 0.0 0.00 0.00 0.00 42 1009.1
20260504184559 26 94 0.0 0.0 0.00 0.00 0.00 44 1009.1
20260504184050 26 111 0.0 0.0 0.00 0.00 0.00 42 1009.1
20260504183552 26 226 0.0 1.6 0.00 0.00 0.00 42 1009.1
20260504183048 26 226 0.0 1.6 0.00 0.00 0.00 42 1009.1
20260504182550 26 250 0.0 1.6 0.00 0.00 0.00 43 1009.1
20260504182049 26 87 0.0 0.0 0.00 0.00 0.00 44 1009.2
20260504181547 26 122 0.0 0.0 0.00 0.00 0.00 43 1009.2
20260504181046 26 106 0.0 0.0 0.00 0.00 0.00 47 1009.2
20260504180546 26 86 0.0 0.0 0.00 0.00 0.00 47 1009.1
20260504180047 26 15 0.0 0.0 0.00 0.00 0.00 50 1009.2
20260504175543 26 353 0.0 0.0 0.00 0.00 0.00 50 1009.2
20260504175043 26 332 0.0 0.0 0.00 0.00 0.00 53 1009.2
20260504174541 25 332 0.0 0.0 0.00 0.00 0.00 54 1009.3
20260504174039 25 250 0.0 0.0 0.00 0.00 0.00 53 1009.3
20260504173539 25 250 0.0 0.0 0.00 0.00 0.00 50 1009.2
20260504173045 24 201 0.0 0.0 0.00 0.00 0.00 50 1009.2
20260504172536 23 256 0.0 0.0 0.00 0.00 0.00 52 1009.3
20260504172032 23 263 0.0 0.0 0.00 0.00 0.00 51 1009.2
20260504171533 23 63 0.0 0.0 0.00 0.00 0.00 50 1009.2
20260504171032 23 95 0.0 0.0 0.00 0.00 0.00 52 1009.2
20260504170531 23 289 0.0 0.0 0.00 0.00 0.00 52 1009.2
20260504151002 15 79 0.0 0.0 0.00 0.00 0.00 96 1008.7
20260504150604 15 98 0.0 0.0 0.00 0.00 0.00 97 1008.6